Location: Cactus School
(34.5700°N, 118.0931°W)
Time: 04:43:05
(UTC-07:00)

Transit 4A - Pass Details

Date: 22 April 2024
Orbit: 871 x 971 km, 66.8° (Epoch: 22 May)

Event Time Altitude Azimuth Distance (km) Brightness Sun altitude
Rises 22:30:57 0° 330° (NNW) 3,465 12.0 -32.3°
Reaches altitude 10° 22:33:26 10° 327° (NNW) 2,528 11.0 -32.6°
Enters shadow 22:38:01 52° 298° (WNW) 1,080 8.4 -33.2°
Maximum altitude 22:39:12 65° 247° (WSW) 967 - -33.4°
Drops below altitude 10° 22:45:03 10° 167° (SSE) 2,559 - -34.1°
Sets 22:47:35 0° 164° (SSE) 3,510 - -34.4°
